Regional Weather Roundup
Issued by NWS

Home | Current Version | Previous Version | Graphics & Text | Print | Product List | Glossary On
Versions: 1 2 3 4 5 6 7 8 9 10 11 12 13 14 15 16 17 18 19 20 21 22 23 24 25 26 27 28 29 30 31 32 33 34 35 36 37 38 39 40 41 42 43 44 45 46 47 48 49 50
000
ASUS43 KLSX 250559
RWRMO

WEATHER SUMMARY FOR MISSOURI
NATIONAL WEATHER SERVICE SPRINGFIELD MO
100 AM CDT MON MAY 25 2015

NOTE: "FAIR" INDICATES FEW OR NO CLOUDS BELOW 12,000 FEET WITH NO
       SIGNIFICANT WEATHER AND/OR OBSTRUCTIONS TO VISIBILITY.
       CURRENT SKY AND/OR WEATHER CONDITIONS ARE NOT AVAILABLE FOR
       CHILLICOTHE AND FARMINGTON.

MOZ001>031-035>038-043-044-053-054-250700-
...NORTHERN AND WESTERN MISSOURI...

CITY           SKY/WX    TMP DP  RH WIND       PRES   REMARKS
KANSAS CTY INT CLOUDY    62  62 100 SW3       29.83S
6HR MIN TEMP:  62; 6HR MAX TEMP:  67; 6HR PCP: TRACE;

KANSAS C DTWN  CLOUDY    65  61  87 SW3       29.82S
6HR MIN TEMP:  65; 6HR MAX TEMP:  68; 6HR PCP: TRACE;

LEE`S SUMMIT   CLOUDY    63  62  97 SW5       29.84S
6HR MIN TEMP:  63; 6HR MAX TEMP:  66; 6HR PCP:  0.07;

ST JOSEPH      CLOUDY    63  62  97 S5        29.82S
6HR MIN TEMP:  63; 6HR MAX TEMP:  68; 6HR PCP: TRACE;

KIRKSVILLE     CLOUDY    63  63 100 W5        29.82S

$$
MOZ066>068-077>081-088>096-101>105-250700-
...SOUTHWEST MISSOURI...

CITY           SKY/WX    TMP DP  RH WIND       PRES   REMARKS
SPRINGFIELD    LGT RAIN  63  61  93 S14       29.89S
6HR MIN TEMP:  62; 6HR MAX TEMP:  66; 6HR PCP:  0.19;

JOPLIN         CLOUDY    61  60  97 S7        29.90S
6HR MIN TEMP:  61; 6HR MAX TEMP:  66; 6HR PCP:  0.89;


$$
MOZ032>034-039>042-045>050-055>058-069>072-250700-
...CENTRAL MISSOURI...

CITY           SKY/WX    TMP DP  RH WIND       PRES   REMARKS
COLUMBIA       LGT RAIN  65  64  97 W5        29.83S
6HR MIN TEMP:  65; 6HR MAX TEMP:  70; 6HR PCP:  0.75;

JEFFERSON CITY CLOUDY    66  64  93 SW6       29.84R
6HR MIN TEMP:  66; 6HR MAX TEMP:  70; 6HR PCP:  0.78;

ROLLA          CLOUDY    67  64  90 S12       29.86R
6HR MIN TEMP:  66; 6HR MAX TEMP:  69; 6HR PCP:  0.05;

SEDALIA        CLOUDY    65  63  93 SW5       29.85R
6HR MIN TEMP:  65; 6HR MAX TEMP:  69; 6HR PCP:  0.11;

OSAGE BEACH    CLOUDY    64  63  94 S5        29.86S

$$
MOZ051-052-059>065-250700-
...EAST CENTRAL MISSOURI...

CITY           SKY/WX    TMP DP  RH WIND       PRES   REMARKS
ST LOUIS INTL  CLOUDY    70  64  81 S16G23    29.88F
6HR MIN TEMP:  70; 6HR MAX TEMP:  82; 6HR PCP:  0.24;

SPIRIT OF STL  CLOUDY    69  66  90 S10G18    29.86F
6HR MIN TEMP:  68; 6HR MAX TEMP:  78; 6HR PCP:  0.30;

ST CHARLES     CLOUDY    68  65  90 S17       29.86F
6HR MIN TEMP:  68; 6HR MAX TEMP:  80; 6HR PCP:  0.34;


$$
MOZ072>076-082>087-097>100-106>115-250700-
...SOUTH CENTRAL AND SOUTHEAST MISSOURI...

CITY           SKY/WX    TMP DP  RH WIND       PRES   REMARKS
CAPE GIRARDEAU CLOUDY    69  67  93 S12       29.97S
6HR MIN TEMP:  67; 6HR MAX TEMP:  80; 6HR PCP:  0.52;

FARMINGTON     CLOUDY    66  64  94 S13G26    29.96F
6HR MIN TEMP:  66; 6HR MAX TEMP:  75; 6HR PCP:  1.90;

POPLAR BLUFF   LGT RAIN  69  66  90 S15       29.96S
6HR MIN TEMP:  68; 6HR MAX TEMP:  80; 6HR PCP:  0.15;

WEST PLAINS    CLOUDY    70  64  81 S10       29.95R
6HR MIN TEMP:  67; 6HR MAX TEMP:  70; 6HR PCP:  0.01;


$$



USA.gov is the U.S. government's official web portal to all federal, state and local government web resources and services.